Dewpoint
61 61 61 61 61 61 61 61 61 62 61 61 61 61 61 61 60 48 29 41 63 78 77 60 60 59 61 50 50 50 41 41 40 44 48 49 45 45 48 48 48 50 51 53 57
61 61 61 61 61 61 61 61 61 61 61 61 60 60 61 61 47 23 65 69 76 78 62 49 43 52 49 46 46 42 43 44 44 43 45 48 46 45 46 48 48 47 51 54 55
61 61 61 60 60 60 60 60 60 60 60 60 60 60 61 60 37 26 74 69 75 75 57 40 40 45 42 43 45 42 45 45 46 48 47 47 47 48 48 46 48 49 52 54 54
61 60 60 60 60 60 60 60 59 60 59 59 59 60 61 50 17 42 74 69 77 63 53 35 36 40 41 42 45 44 45 47 49 49 48 48 48 46 47 46 49 50 52 53 53
60 60 60 59 59 59 59 59 59 59 59 59 59 60 52 32 13 40 71 67 58 55 45 33 36 39 40 42 43 45 46 47 49 49 49 50 48 47 48 46 49 50 51 52 51
59 59 59 58 58 58 58 58 58 59 60 60 59 60 48 17 20 31 39 40 37 44 36 33 36 40 41 42 43 44 45 48 48 50 50 49 49 49 50 47 49 49 49 50 50
58 58 58 58 58 57 57 57 58 59 61 59 60 54 30 15 28 25 28 36 36 38 31 32 33 38 40 41 44 43 43 45 47 48 48 50 51 50 51 48 48 48 51 52 53
57 57 57 57 57 57 57 57 58 60 61 60 61 49 23 16 18 22 26 26 34 25 25 29 33 38 40 42 41 40 40 41 43 45 48 48 49 51 52 48 48 48 52 52 54
57 56 56 56 56 56 55 56 58 62 61 60 54 40 16 37 15 11 23 20 22 22 27 25 31 36 39 39 36 39 37 36 40 43 45 46 48 52 52 49 49 50 51 52 54
56 56 56 55 55 55 55 56 58 59 60 52 47 39 27 10 19 21 24 22 20 21 24 27 32 33 35 34 37 32 33 34 36 41 42 41 46 51 52 51 50 50 52 53 53
56 55 55 55 55 55 53 47 42 45 42 33 31 28 21 23 29 26 23 22 17 19 22 28 26 28 31 33 35 33 32 32 34 35 41 40 43 48 52 52 51 49 51 52 53
55 55 55 55 55 55 52 38 42 42 38 31 29 29 28 29 24 17 21 17 15 14 17 22 24 26 29 31 32 32 31 31 34 36 36 38 37 47 50 52 52 51 51 52 53
55 55 55 55 54 51 42 41 43 43 37 29 31 30 25 27 18 17 19 16 12 11 10 14 19 23 25 30 31 30 29 30 30 32 32 33 34 42 49 51 52 51 51 51 52
55 55 55 53 50 42 42 43 43 42 33 30 29 30 28 25 18 19 19 12 9 9 7 10 14 17 20 26 31 28 28 28 28 30 27 29 39 47 45 50 51 51 51 51 53
55 55 54 53 47 41 43 42 43 40 23 28 26 31 26 20 19 19 23 11 11 9 9 9 8 15 19 23 28 29 30 29 28 26 24 24 25 42 42 46 49 50 50 51 52
54 54 53 48 48 43 43 43 41 30 17 25 27 27 22 19 18 21 13 11 12 11 9 7 7 11 15 17 24 27 28 29 27 24 22 20 24 42 45 42 44 48 49 50 50
53 52 53 49 41 44 43 42 31 20 21 24 24 22 18 16 15 19 14 9 8 10 10 10 6 8 6 10 18 22 24 23 22 20 19 18 25 40 51 40 33 36 46 49 50
51 51 52 48 43 45 44 36 29 16 19 29 23 22 18 17 16 14 13 8 8 4 3 6 2 6 7 6 8 16 16 16 21 14 14 20 24 24 38 32 36 36 40 47 49
51 44 45 47 49 49 41 27 23 19 26 23 23 24 22 16 16 15 14 10 9 5 9 6 6 4 6 7 4 7 10 7 6 7 14 18 24 23 27 28 34 39 41 45 47
50 39 39 48 49 46 36 31 23 21 25 24 25 25 24 22 18 16 16 14 8 7 8 10 12 6 5 7 7 6 11 5 9 19 19 14 18 21 29 28 33 39 41 44 45
50 35 47 49 49 40 30 27 24 22 21 26 26 26 23 22 21 18 18 15 12 11 9 6 8 11 9 10 7 8 11 11 7 9 12 15 20 19 23 24 26 39 42 43 44
40 31 46 47 38 32 28 28 32 24 24 26 30 29 27 24 24 19 15 16 13 11 13 12 6 8 10 8 6 6 7 7 11 18 15 13 12 12 20 28 34 41 44 46 45
40 34 45 45 34 28 31 29 27 22 27 28 28 26 28 27 26 22 16 15 14 14 15 12 10 9 9 4 7 8 11 5 4 7 18 14 16 21 24 33 41 44 49 54 53
43 34 36 42 38 38 31 31 28 27 30 32 34 32 31 29 28 28 19 21 18 16 51 30 6 6 7 13 10 12 8 10 6 10 11 10 12 23 27 34 44 49 53 55 55
41 34 46 35 31 32 31 35 32 32 32 35 36 33 32 31 29 28 27 26 25 39 22 15 14 13 8 12 9 10 7 6 13 13 13 11 14 16 30 37 45 52 55 55 55
42 40 42 38 40 41 38 37 36 33 33 34 35 30 34 36 37 38 36 36 29 26 19 17 19 19 13 10 11 10 12 6 9 9 10 11 13 34 38 44 48 53 55 56 56
45 43 41 38 32 32 32 33 35 37 38 38 38 39 39 40 43 42 40 39 38 35 24 19 14 17 17 14 15 16 15 14 15 10 11 12 29 40 40 46 49 54 55 55 57
Lifted_Index
13 13 12 12 12 12 12 12 12 12 13 13 13 13 13 12 10 8 7 5 1 -2 -3 -2 -3 -4 -4 -4 -3 -2 -2 -1 -1 -1 -1 -1 0 1 1 1 1 1 1 1 1
13 13 13 12 12 12 12 12 12 12 13 13 13 13 13 12 10 7 5 4 1 -2 -2 -1 -1 -3 -4 -3 -2 -2 -1 -1 -1 -1 -1 -1 -0 0 1 0 1 1 1 1 1
13 13 13 12 12 12 12 12 12 12 12 13 13 13 13 11 9 6 4 3 1 -1 -0 2 1 -1 -3 -3 -2 -2 -1 -1 -1 -1 -1 -1 -1 -0 -0 0 1 1 1 1 1
13 13 13 13 12 12 12 12 12 12 12 13 13 13 12 10 8 6 4 3 1 0 2 3 1 -1 -2 -3 -3 -2 -2 -1 -1 -2 -2 -2 -1 -1 -1 -0 0 1 1 1 1
14 13 13 13 12 12 12 12 12 12 13 13 13 12 10 9 8 7 6 4 3 2 3 3 1 -1 -2 -3 -2 -2 -2 -2 -2 -2 -2 -2 -2 -2 -1 -0 0 1 1 1 1
14 14 14 13 12 12 12 12 12 12 13 13 13 11 9 8 9 9 8 7 5 4 4 4 2 -0 -2 -2 -2 -2 -2 -2 -2 -3 -3 -3 -3 -2 -2 -0 0 1 1 1 0
13 13 14 13 12 12 12 12 12 12 12 12 12 11 9 9 10 10 9 8 7 6 6 5 3 1 -1 -1 -1 -1 -2 -2 -2 -2 -2 -2 -3 -3 -2 -1 0 0 -0 -0 -0
12 12 12 12 12 11 11 12 12 11 11 11 11 10 9 10 11 10 10 9 8 8 7 6 4 2 0 -0 -1 -1 -2 -2 -2 -2 -2 -2 -3 -3 -2 -1 -0 -0 -1 -1 -1
10 11 11 11 11 11 10 11 11 10 10 9 9 9 9 10 10 10 10 9 9 8 7 5 4 2 1 0 -1 -1 -1 -1 -1 -1 -2 -2 -2 -3 -2 -1 -1 -1 -1 -1 -1
11 11 10 11 11 10 9 9 9 8 8 7 7 8 9 9 10 10 10 9 8 8 7 5 4 2 1 -0 -0 -0 -1 -1 -1 -1 -1 -2 -2 -3 -2 -2 -1 -1 -1 -1 -1
12 12 11 11 10 10 8 7 7 7 7 7 7 8 9 9 9 9 9 9 8 7 6 5 4 2 0 -0 -0 0 -0 -0 0 0 -1 -2 -2 -3 -3 -2 -2 -2 -1 -2 -2
14 13 12 11 10 9 8 7 7 6 6 6 7 8 8 8 8 9 9 8 7 6 5 4 3 2 0 -1 -0 -0 -0 -0 0 1 0 -1 -2 -2 -3 -3 -2 -2 -2 -2 -2
15 14 13 11 10 8 7 7 7 7 6 6 6 7 8 8 8 8 8 7 6 5 4 3 2 2 1 -0 -0 -1 -1 -0 0 1 0 -0 -1 -2 -2 -3 -2 -2 -2 -2 -2
15 15 14 12 9 8 7 7 7 6 5 5 6 6 7 7 7 7 7 6 5 4 4 3 2 2 2 1 -0 -1 -1 -0 0 1 -0 -0 -0 -1 -2 -3 -2 -2 -3 -3 -3
16 15 14 12 9 8 7 7 7 5 3 4 5 6 6 6 6 6 6 6 5 4 3 3 3 3 2 2 1 -0 -0 -0 0 0 -1 -1 -1 -1 -2 -2 -2 -2 -3 -3 -3
16 16 15 12 9 8 7 7 6 4 2 3 5 5 5 5 5 6 6 5 5 4 3 3 3 3 3 2 1 0 0 0 -0 -1 -1 -1 -1 -1 -1 -1 -2 -2 -2 -3 -3
15 15 14 11 9 8 7 6 4 3 2 3 4 4 4 4 4 5 5 5 4 3 3 3 3 3 3 3 2 1 1 -0 -1 -1 -1 -1 -1 -0 -0 -1 -1 -1 -2 -2 -3
15 13 12 10 9 7 6 5 3 2 2 3 3 3 3 3 3 3 4 4 3 2 1 1 1 2 3 3 2 1 1 -0 -1 -1 -1 -1 -1 -1 -0 -0 0 0 -1 -2 -3
13 11 9 8 7 7 6 5 3 2 3 3 3 2 2 2 2 2 2 2 2 2 1 -0 -0 1 2 2 2 1 0 -0 -1 -1 -1 -1 -1 -1 -1 -0 0 -0 -1 -2 -2
11 10 8 7 6 6 5 5 4 4 4 3 2 1 1 1 1 1 1 1 1 2 1 0 -0 -0 1 2 2 1 0 -0 -1 -1 -1 -1 -1 -1 -1 -0 -0 -1 -1 -2 -2
10 9 7 6 6 6 5 5 5 5 5 4 2 1 0 0 0 0 -0 0 1 2 2 1 -0 -0 1 2 2 1 0 -0 -1 -1 -1 -1 -1 -1 -1 -1 -1 -1 -2 -2 -2
9 8 7 6 6 6 5 5 5 5 5 4 3 2 1 0 -0 -0 -1 -0 1 2 2 1 0 -0 -0 1 1 0 -0 -1 -1 -1 -1 -1 -1 -1 -1 -1 -1 -1 -2 -3 -3
8 8 7 6 6 5 5 5 5 5 4 3 3 3 2 1 0 -0 -0 0 1 2 2 1 1 -0 -1 -0 -0 -0 -0 -1 -1 -1 -1 -1 -1 -1 -1 -0 -1 -2 -3 -4 -4
8 7 6 5 5 5 5 5 4 4 4 3 2 2 2 1 1 -0 -0 0 1 2 2 1 0 -1 -1 -1 -1 -0 -0 -0 -1 -1 -1 -1 -1 -1 -0 -1 -2 -3 -4 -4 -4
7 6 5 5 5 5 4 4 4 4 3 3 2 1 1 0 -0 -1 -1 -0 1 1 2 1 0 -1 -1 -1 -1 -1 -0 -1 -1 -1 -1 -1 -1 -1 -0 -1 -2 -4 -5 -5 -5
7 7 6 6 5 5 4 4 3 3 3 2 1 1 1 -0 -1 -1 -1 -1 -0 1 1 1 0 -1 -1 -1 -1 -1 -1 -1 -1 -1 -1 -1 -1 -1 -1 -2 -3 -4 -5 -5 -5
8 8 7 6 5 5 5 4 3 3 2 2 1 1 0 -1 -1 -1 -1 -1 -1 -0 1 1 -0 -1 -1 -1 -1 -1 -1 -1 -1 -1 -1 -1 -1 -1 -1 -2 -3 -4 -5 -5 -5